Wind_Speed
29 28 26 25 25 24 23 22 22 21 21 21 21 20 20 20 21 21 22 22 22 23 23 24 24 24 24 24 24 24 25 25 26 26 27 27 28 28 29 29 29 30 30
31 30 28 27 26 25 24 24 23 22 22 22 22 22 22 22 23 23 23 24 24 24 25 25 26 26 26 26 26 26 26 27 27 27 28 29 29 30 30 31 31 32 32
32 31 30 29 27 27 26 26 25 24 24 24 24 24 24 24 24 25 25 26 26 26 26 27 27 28 28 28 28 29 29 29 29 30 30 30 31 32 32 32 32 32 33
32 33 32 31 30 28 28 28 27 26 26 26 26 26 26 26 27 27 27 28 28 28 28 29 29 29 30 30 31 31 31 31 32 32 33 33 33 33 34 34 34 34 34
34 34 34 33 32 31 30 30 29 29 29 29 29 29 29 29 29 29 29 30 30 30 30 30 31 31 32 32 33 33 33 34 34 35 35 35 35 35 35 36 36 36 36
36 35 34 34 34 33 32 32 32 31 31 31 31 31 31 31 30 30 31 31 32 32 32 32 33 34 34 35 35 36 36 37 37 37 37 38 38 38 38 38 38 38 38
37 36 36 36 36 36 34 34 33 33 33 33 32 32 33 33 32 32 33 33 33 34 34 35 35 36 37 37 37 38 38 39 39 39 39 39 40 40 40 40 40 40 40
37 35 36 36 36 36 36 36 35 35 35 35 34 35 35 35 34 34 34 35 36 36 36 37 37 38 38 39 39 40 40 40 40 40 41 41 41 42 42 42 42 43 43
38 38 37 37 37 38 38 37 36 37 37 37 37 37 38 37 36 37 37 38 38 38 38 39 39 40 40 41 41 41 42 42 42 42 43 43 44 44 44 45 45 45 46
38 38 38 38 38 38 39 39 39 39 39 39 39 39 40 40 40 40 40 40 40 41 41 41 42 43 43 43 44 44 44 44 45 45 45 45 46 46 47 47 48 48 48
40 40 39 39 39 39 40 40 41 41 40 40 41 40 41 42 42 42 42 42 43 43 44 44 45 45 45 46 46 46 47 47 48 48 48 49 49 49 50 50 51 51 51
39 41 41 40 40 40 42 42 42 41 42 42 43 43 43 43 44 44 44 44 45 46 46 47 47 47 47 48 48 49 50 50 50 51 51 52 52 53 53 54 54 54 54
37 38 39 40 41 41 41 42 43 44 43 43 44 44 45 45 45 46 46 47 47 47 48 48 49 49 49 50 51 51 52 52 53 54 54 55 55 56 56 56 56 57 57
38 39 40 40 41 41 42 42 43 44 44 44 44 45 45 46 46 48 48 48 48 48 49 49 50 51 51 52 53 53 54 54 55 56 56 57 58 58 59 59 59 59 59
39 40 41 42 42 43 43 44 44 45 45 44 44 45 46 47 47 48 49 49 49 49 50 50 51 52 53 54 54 55 56 57 57 58 59 59 60 60 60 61 61 62 63
41 41 42 42 42 42 43 44 45 45 46 47 47 47 46 47 48 49 50 51 51 51 52 52 53 54 55 56 57 57 58 58 59 59 60 60 61 61 62 63 64 65 65
40 42 43 43 43 43 44 45 46 46 47 48 48 48 49 49 49 49 50 51 52 53 54 54 56 57 57 58 58 59 59 60 60 61 62 63 63 64 64 65 66 67 67
41 42 43 43 44 44 45 46 46 47 48 48 49 49 50 51 51 51 51 52 54 55 55 56 57 58 59 59 59 60 61 62 63 64 65 66 66 67 67 68 68 69 69
42 42 42 43 44 44 45 46 47 47 47 48 49 50 50 50 51 52 53 54 55 55 56 57 58 58 59 60 60 61 62 63 65 66 67 68 68 69 69 70 70 70 70
42 42 43 44 44 44 45 46 46 47 47 48 49 50 50 51 52 53 53 54 55 56 57 58 58 59 60 61 62 63 63 64 65 66 67 68 69 70 70 70 70 70 69
43 44 44 45 45 46 46 46 47 47 48 48 49 50 51 52 52 53 54 55 56 57 57 58 59 60 61 62 63 64 65 65 65 67 67 68 69 69 69 69 69 68 67
44 45 45 45 46 46 46 47 47 48 49 49 50 50 51 52 53 54 55 56 57 57 58 58 59 60 60 62 63 64 65 65 65 66 67 67 67 67 67 67 66 65 64
45 45 45 46 47 47 48 48 48 49 50 50 51 51 52 53 54 55 55 56 57 58 58 59 59 59 60 61 63 64 64 65 65 65 65 64 64 64 64 63 63 63 62
45 46 46 47 48 48 48 49 49 50 50 51 51 52 53 53 54 55 55 56 56 57 58 58 58 59 60 61 62 63 64 64 64 63 64 62 61 61 61 60 59 59 59
45 46 46 47 47 48 48 49 50 50 51 51 52 52 53 53 54 54 55 55 56 56 57 58 57 58 58 59 61 62 61 61 60 59 60 60 60 59 58 57 56 56 56
46 46 47 48 48 49 49 50 50 50 51 52 52 52 52 52 53 54 55 55 56 56 57 57 57 58 59 60 60 61 60 59 59 58 57 57 57 56 54 53 53 52 52
Wind_Direction
241 243 247 251 253 254 258 262 264 266 268 271 272 274 276 277 277 279 280 281 282 284 284 285 285 286 287 288 288 288 288 289 289 288 288 288 288 286 285 285 284 283 283
242 243 246 249 252 255 258 262 264 267 269 271 272 273 275 277 277 278 280 280 282 283 283 284 284 285 285 286 287 287 287 288 288 287 287 287 287 287 286 285 284 283 282
241 242 244 247 251 255 258 261 265 267 269 271 272 273 275 276 277 278 279 280 281 282 283 283 284 284 284 284 285 286 286 287 287 287 287 287 287 287 286 286 286 284 283
240 242 243 246 250 254 258 261 265 267 269 270 272 274 274 276 277 278 279 279 280 281 282 283 283 283 283 284 284 285 286 286 286 286 286 286 287 286 285 285 285 285 284
241 242 244 246 250 254 258 262 265 267 269 271 272 274 274 275 277 277 278 279 280 280 282 282 283 282 282 283 284 285 285 286 286 286 286 286 286 286 285 285 284 284 283
240 242 244 247 251 253 257 261 265 267 269 270 271 273 274 274 276 277 278 279 280 281 281 282 282 282 282 282 283 284 285 285 285 285 285 285 285 285 284 284 283 283 283
243 243 245 248 251 254 256 261 264 265 267 269 271 273 274 275 276 277 278 278 280 280 281 281 282 282 282 282 283 283 284 284 285 284 284 284 285 284 284 283 282 282 282
243 245 247 250 252 255 257 260 263 265 267 268 270 272 274 275 275 277 278 279 279 280 280 281 282 282 282 282 283 283 283 283 283 284 284 284 284 283 283 283 282 282 281
245 247 249 251 253 255 257 260 263 265 266 268 269 271 273 275 277 277 279 279 279 279 280 281 282 283 283 282 282 283 284 283 283 284 284 283 283 283 283 283 282 282 281
247 249 251 252 253 256 258 260 262 265 266 268 270 271 274 276 277 278 278 279 279 279 279 281 281 281 281 282 282 283 283 283 283 283 283 283 283 283 283 282 282 281 280
250 251 253 253 255 257 258 260 263 265 267 269 270 272 274 276 277 278 278 278 279 279 279 280 281 281 280 281 281 282 282 283 283 283 283 282 282 283 283 282 282 281 281
254 254 255 256 256 258 260 261 263 265 267 267 269 271 273 275 276 278 278 277 278 279 280 280 281 281 281 281 281 282 282 282 282 282 282 282 282 282 282 282 281 281 281
255 257 259 259 258 260 261 263 264 267 268 268 269 271 272 275 277 277 278 278 278 279 279 280 281 281 282 282 282 282 282 283 283 282 282 282 282 282 282 281 281 281 281
258 259 261 261 262 263 265 266 267 268 269 270 271 273 273 275 277 277 278 277 277 278 279 280 280 281 282 283 282 282 282 283 283 283 283 282 282 282 282 281 281 281 281
258 259 261 262 264 266 268 269 269 270 272 273 273 275 275 275 276 277 277 277 278 278 279 280 281 282 283 283 283 283 282 282 282 283 283 283 283 283 282 282 281 281 281
262 262 263 264 266 267 268 270 270 271 273 274 275 276 277 278 278 277 277 278 279 279 279 280 281 282 282 282 283 283 283 283 283 284 284 284 284 283 283 282 281 281 281
264 264 264 265 266 268 269 270 271 272 273 274 275 276 277 277 278 278 279 279 280 280 281 281 282 282 282 283 283 283 283 283 283 283 283 284 284 283 283 283 282 282 281
264 265 265 266 268 269 270 270 271 272 272 273 274 276 277 277 278 278 280 281 282 282 282 282 282 282 283 283 283 283 283 284 284 283 284 284 284 283 283 283 283 283 282
266 266 267 268 270 271 271 271 272 272 273 274 275 276 277 278 279 279 280 282 283 284 283 284 284 283 283 283 284 283 284 284 284 284 284 284 284 284 284 284 284 284 283
266 266 268 269 270 271 272 273 274 275 276 276 277 278 279 280 280 281 282 282 283 284 284 284 284 284 284 284 285 285 285 285 285 286 286 286 286 286 286 286 285 284 283
268 268 269 270 272 273 274 276 276 277 277 278 279 279 280 281 281 282 282 283 284 285 285 285 285 285 285 285 285 286 286 287 287 287 287 288 287 287 286 286 285 284 283
269 269 271 272 273 275 276 276 277 278 279 280 280 280 280 281 281 282 283 284 284 285 285 286 286 287 287 287 287 287 287 288 288 288 288 289 288 288 287 287 286 284 283
271 271 272 273 274 275 276 277 278 279 279 280 280 280 281 281 282 283 284 285 285 286 286 287 288 288 288 288 288 289 289 290 290 290 289 289 289 289 289 288 287 286 285
271 272 273 274 275 275 276 277 278 278 279 280 280 281 281 282 283 284 284 285 286 286 287 288 289 289 289 289 289 290 291 291 291 290 290 290 290 290 290 289 288 286 285
272 273 273 274 274 275 276 277 278 279 280 280 281 282 282 283 284 285 285 285 286 286 286 287 288 289 290 291 292 292 292 292 291 291 291 291 291 290 290 289 288 287 286
273 273 274 274 275 276 277 278 279 280 280 281 282 282 283 284 285 286 286 286 286 286 286 287 288 289 291 292 292 292 292 292 292 292 292 292 292 291 290 289 289 288 287
Height
5816 5819 5821 5822 5823 5824 5825 5826 5826 5826 5826 5826 5826 5826 5825 5825 5824 5824 5823 5822 5821 5820 5820 5819 5818 5817 5815 5814 5813 5812 5811 5809 5808 5807 5805 5804 5802 5801 5800 5799 5798 5798 5797
5810 5813 5815 5816 5817 5819 5820 5820 5821 5821 5821 5821 5821 5821 5820 5820 5819 5818 5818 5817 5816 5815 5814 5813 5812 5811 5810 5809 5808 5806 5805 5804 5802 5801 5799 5798 5797 5795 5794 5793 5792 5790 5789
5803 5806 5808 5810 5811 5813 5814 5815 5815 5816 5816 5816 5816 5815 5815 5814 5813 5813 5812 5811 5810 5809 5808 5807 5806 5805 5804 5803 5802 5800 5799 5797 5796 5795 5793 5792 5790 5789 5787 5786 5785 5783 5782
5796 5798 5801 5803 5804 5806 5807 5809 5809 5810 5810 5810 5810 5809 5808 5808 5807 5806 5806 5805 5804 5803 5802 5801 5800 5799 5797 5796 5795 5794 5792 5791 5789 5788 5786 5785 5783 5782 5780 5779 5777 5776 5775
5789 5791 5793 5796 5797 5799 5801 5802 5803 5803 5803 5803 5803 5803 5802 5801 5801 5800 5799 5798 5797 5796 5795 5794 5793 5792 5790 5789 5788 5786 5785 5783 5782 5780 5779 5777 5776 5774 5772 5771 5769 5768 5767
5781 5784 5786 5788 5790 5792 5793 5795 5796 5796 5796 5796 5796 5796 5795 5794 5793 5793 5792 5791 5790 5789 5788 5787 5785 5784 5783 5781 5780 5779 5777 5775 5774 5772 5771 5769 5767 5765 5764 5762 5761 5759 5758
5774 5777 5779 5781 5782 5784 5786 5787 5788 5788 5789 5789 5789 5788 5787 5787 5786 5785 5784 5783 5782 5781 5780 5779 5777 5776 5775 5773 5772 5770 5768 5767 5765 5763 5762 5760 5758 5756 5755 5753 5751 5750 5748
5766 5768 5771 5772 5774 5776 5778 5779 5780 5781 5781 5781 5781 5780 5779 5779 5778 5777 5776 5775 5774 5773 5772 5770 5769 5767 5766 5764 5763 5761 5759 5757 5756 5754 5752 5750 5748 5747 5745 5743 5742 5740 5738
5758 5760 5762 5765 5766 5768 5769 5770 5771 5772 5773 5773 5772 5772 5771 5771 5770 5769 5768 5766 5765 5764 5762 5761 5760 5758 5756 5755 5753 5751 5750 5748 5746 5744 5742 5740 5738 5736 5734 5733 5731 5729 5727
5750 5752 5754 5756 5757 5759 5760 5762 5762 5763 5763 5763 5763 5763 5762 5762 5761 5760 5759 5757 5756 5754 5753 5751 5750 5748 5746 5745 5743 5741 5739 5737 5735 5733 5731 5729 5727 5725 5723 5721 5719 5717 5715
5742 5744 5745 5747 5749 5750 5751 5752 5753 5753 5753 5754 5754 5753 5753 5752 5751 5750 5749 5747 5746 5744 5743 5741 5739 5737 5736 5734 5732 5730 5728 5726 5724 5722 5720 5717 5715 5713 5711 5709 5706 5704 5703
5734 5736 5737 5738 5740 5741 5742 5743 5743 5743 5743 5744 5744 5743 5743 5742 5740 5739 5738 5737 5735 5734 5732 5730 5728 5726 5724 5723 5721 5719 5716 5714 5712 5710 5707 5705 5702 5700 5698 5695 5693 5691 5689
5726 5727 5728 5729 5730 5731 5732 5732 5733 5733 5733 5733 5733 5733 5732 5731 5729 5728 5727 5726 5724 5722 5720 5718 5716 5714 5712 5710 5708 5706 5704 5701 5699 5696 5694 5691 5689 5686 5683 5681 5678 5676 5674
5717 5719 5720 5720 5721 5722 5722 5723 5723 5723 5723 5723 5722 5721 5721 5719 5718 5717 5715 5714 5712 5711 5709 5707 5704 5702 5700 5697 5695 5693 5691 5688 5685 5682 5679 5677 5674 5671 5668 5666 5663 5660 5658
5708 5709 5710 5711 5711 5712 5712 5712 5712 5712 5712 5712 5711 5710 5709 5708 5706 5705 5703 5702 5700 5699 5697 5694 5691 5689 5686 5684 5681 5679 5676 5674 5671 5668 5664 5661 5658 5655 5652 5649 5646 5643 5640
5699 5700 5701 5701 5701 5701 5701 5701 5701 5701 5700 5700 5699 5698 5697 5696 5694 5693 5691 5689 5687 5685 5684 5681 5678 5675 5672 5669 5666 5664 5661 5658 5655 5652 5648 5645 5642 5638 5635 5632 5629 5625 5622
5689 5690 5690 5690 5690 5691 5690 5690 5690 5689 5688 5688 5687 5686 5685 5683 5681 5680 5678 5676 5673 5671 5669 5667 5664 5661 5657 5654 5651 5648 5645 5641 5638 5635 5631 5628 5624 5620 5617 5613 5610 5606 5602
5679 5679 5679 5679 5679 5679 5679 5678 5678 5677 5676 5675 5674 5673 5671 5670 5668 5666 5664 5662 5659 5657 5654 5652 5649 5645 5642 5638 5635 5632 5628 5624 5621 5617 5613 5609 5605 5601 5597 5594 5590 5586 5582
5668 5668 5668 5668 5668 5668 5667 5666 5665 5664 5663 5662 5661 5660 5658 5656 5654 5652 5650 5647 5644 5641 5639 5636 5633 5630 5626 5622 5618 5615 5611 5607 5603 5598 5594 5589 5585 5581 5577 5573 5569 5564 5560
5657 5657 5657 5657 5656 5656 5655 5654 5652 5651 5650 5649 5648 5646 5644 5642 5640 5638 5635 5632 5629 5626 5623 5620 5617 5614 5610 5605 5601 5598 5594 5589 5585 5580 5575 5570 5565 5560 5556 5552 5548 5543 5539
5646 5645 5645 5645 5644 5643 5642 5641 5640 5638 5637 5636 5634 5632 5630 5628 5626 5623 5621 5617 5614 5611 5607 5604 5601 5597 5593 5589 5584 5580 5576 5572 5568 5561 5556 5551 5546 5541 5536 5531 5526 5522 5518
5634 5634 5633 5633 5632 5631 5629 5628 5626 5625 5623 5622 5620 5618 5616 5614 5611 5608 5605 5602 5599 5595 5592 5588 5585 5581 5576 5571 5567 5562 5557 5554 5550 5545 5537 5533 5526 5521 5516 5511 5506 5501 5497
5622 5621 5621 5620 5619 5618 5617 5615 5613 5611 5610 5608 5606 5604 5602 5599 5596 5593 5590 5587 5583 5579 5575 5572 5568 5564 5559 5554 5549 5545 5540 5534 5530 5524 5518 5514 5507 5502 5497 5492 5486 5482 5478
5610 5609 5608 5607 5606 5605 5603 5601 5599 5597 5596 5594 5592 5589 5587 5584 5581 5578 5575 5572 5568 5564 5560 5556 5552 5547 5542 5537 5532 5527 5522 5517 5513 5506 5499 5495 5490 5485 5479 5474 5469 5464 5460
5597 5596 5595 5594 5592 5591 5589 5587 5585 5584 5582 5580 5577 5575 5572 5569 5566 5563 5560 5557 5554 5549 5545 5540 5536 5531 5526 5520 5514 5509 5504 5499 5495 5490 5483 5477 5473 5468 5463 5458 5453 5448 5444
5584 5582 5581 5580 5579 5577 5575 5573 5571 5569 5568 5566 5563 5560 5557 5554 5551 5547 5544 5541 5538 5534 5530 5525 5521 5516 5510 5504 5498 5492 5487 5482 5478 5474 5468 5461 5456 5451 5448 5444 5438 5432 5428